Weather History for KSTJ - January, 2015

Change the Weather History Date:

Saturday, January 17, 2015

  Actual Average Record
Temperature  
Mean Temperature 45 °F 27 °F  
Max Temperature 55 °F 37 °F 65 °F (1996)
Min Temperature 35 °F 17 °F -16 °F (1930)
Degree Days  
Heating Degree Days 20 38  
Month to date heating degree days 731 649  
Since 1 July heating degree days 2943 2862  
Cooling Degree Days 0 0  
Month to date cooling degree days 0 0  
Year to date cooling degree days 0 0  
Moisture  
Dew Point 27 °F    
Average Humidity 46    
Maximum Humidity 64    
Minimum Humidity 28    
Precipitation  
Precipitation T in 0.02 in 0.54 in (1936)
Month to date precipitation T 0.29  
Year to date precipitation T 0.29  
Sea Level Pressure  
Sea Level Pressure 29.88 in    
Wind  
Wind Speed 14 mph (West)    
Max Wind Speed 37 mph    
Max Gust Speed 49 mph    
Visibility 10 miles    
Events Rain    
T = Trace of Precipitation, MM = Missing Value Source: NWS Daily Summary

Daily Weather History Graph

Daily Weather History Graph

Search for Another Location

Airport or City:

Trip Planner

Search our weather history database for the weather conditions in past years. The results will help you decide how hot, cold, wet, or windy it might be!

Date:

Astronomy

Jan. 17, 2015 Rise Set
Actual Time 7:38 AM CST 5:21 PM CST
Civil Twilight 7:08 AM CST 5:51 PM CST
Nautical Twilight 6:35 AM CST 6:24 PM CST
Astronomical Twilight 6:03 AM CST 6:56 PM CST
Moon 4:35 AM CST (1/17) 2:48 PM CST (1/17)
Length of Visible Light 10h 42m
Length of Day
9h 43m
Waning Crescent, 11% of the Moon is Illuminated
Jan 17
Waning Crescent
Jan 20
New
Jan 26
First Quarter
Feb 3
Full
Feb 11
Last Quarter

Hourly Weather History & Observations

Time (CST) Temp. Windchill Dew Point Humidity Pressure Visibility Wind Dir Wind Speed Gust Speed Precip Events Conditions
12:53 AM 44.1 °F 38.6 °F 24.1 °F 45% 29.82 in 10.0 mi SSW 10.4 mph - N/A   Clear
1:53 AM 44.1 °F 38.1 °F 25.0 °F 47% 29.79 in 10.0 mi South 11.5 mph - N/A   Clear
2:53 AM 44.1 °F 37.1 °F 25.0 °F 47% 29.75 in 10.0 mi SSW 15.0 mph - N/A   Clear
3:53 AM 42.1 °F 35.7 °F 26.1 °F 53% 29.76 in 10.0 mi SSW 11.5 mph - N/A   Clear
4:53 AM 39.0 °F 31.8 °F 26.1 °F 60% 29.74 in 10.0 mi SSW 11.5 mph - N/A   Clear
5:53 AM 39.0 °F 32.3 °F 27.0 °F 62% 29.74 in 10.0 mi SSW 10.4 mph - N/A   Clear
6:53 AM 39.0 °F 31.8 °F 27.0 °F 62% 29.74 in 10.0 mi SSW 11.5 mph - N/A   Clear
7:53 AM 39.9 °F 34.5 °F 27.0 °F 60% 29.76 in 10.0 mi WSW 8.1 mph - N/A   Clear
8:53 AM 41.0 °F 38.0 °F 27.0 °F 57% 29.78 in 10.0 mi West 4.6 mph - N/A   Clear
9:53 AM 44.1 °F 42.5 °F 28.0 °F 53% 29.82 in 10.0 mi WSW 3.5 mph - N/A   Clear
10:53 AM 48.9 °F - 30.9 °F 50% 29.86 in 10.0 mi NW 18.4 mph 24.2 mph N/A   Clear
11:53 AM 51.1 °F - 32.0 °F 48% 29.86 in 10.0 mi NNW 25.3 mph 34.5 mph N/A   Clear
12:53 PM 51.1 °F - 32.0 °F 48% 29.88 in 10.0 mi NNW 26.5 mph 32.2 mph N/A   Clear
1:53 PM 53.1 °F - 32.0 °F 45% 29.88 in 10.0 mi WNW 21.9 mph - N/A   Clear
2:53 PM 54.0 °F - 25.0 °F 33% 29.89 in 10.0 mi North - - N/A   Unknown
3:53 PM 54.0 °F - 21.9 °F 29% 29.91 in 10.0 mi NW 26.5 mph 34.5 mph N/A   Clear
4:53 PM 46.9 °F - 30.0 °F 52% 29.95 in 10.0 mi NNW 25.3 mph 43.7 mph 0.00 in Rain Light Rain
5:53 PM 42.1 °F 37.1 °F 27.0 °F 55% 29.97 in 10.0 mi West 8.1 mph - 0.00 in   Partly Cloudy
6:53 PM 45.0 °F 38.5 °F 27.0 °F 49% 30.00 in 10.0 mi NW 13.8 mph 24.2 mph N/A   Mostly Cloudy
7:53 PM 39.9 °F 33.4 °F 26.1 °F 58% 30.01 in 10.0 mi WNW 10.4 mph - N/A   Clear
8:53 PM 37.0 °F 29.8 °F 25.0 °F 62% 30.01 in 10.0 mi West 10.4 mph - N/A   Clear
9:53 PM 36.0 °F 29.0 °F 24.1 °F 62% 30.03 in 10.0 mi West 9.2 mph - N/A   Clear
10:53 PM 36.0 °F 28.5 °F 24.1 °F 62% 30.03 in 10.0 mi West 10.4 mph - N/A   Clear
11:53 PM 36.0 °F 28.5 °F 23.0 °F 59% 30.03 in 10.0 mi West 10.4 mph - N/A   Clear